This is the latest recevied weather packets stored in our database for station/object N0KTA-2. If no packets are shown the sender has not sent any weather packets the latest 10 day(s).
| Time | Temp. | Humidity | Pressure | Rain* | Wind** | Luminosity | Snow |
|---|---|---|---|---|---|---|---|
| 1777975165 | 13.33° C | 63% | 1000.9 hPa | 0 mm | - | - | - |
| 1777974564 | 13.33° C | 64% | 1000.4 hPa | 0 mm | - | - | - |
| 1777973965 | 13.33° C | 66% | 1000.3 hPa | 0 mm | - | - | - |
| 1777973365 | 13.89° C | 68% | 1000.1 hPa | 0 mm | - | - | - |
| 1777972764 | 14.44° C | 67% | 1000.1 hPa | 0 mm | - | - | - |
| 1777972165 | 14.44° C | 67% | 1000.1 hPa | 0 mm | - | - | - |
| 1777971564 | 15° C | 70% | 999.6 hPa | 0 mm | - | - | - |
| 1777970965 | 15.56° C | 71% | 999.6 hPa | 0 mm | - | - | - |
| 1777970365 | 15.56° C | 71% | 999.5 hPa | 0 mm | - | - | - |
| 1777969764 | 16.11° C | 73% | 999.2 hPa | 0 mm | - | - | - |
| 1777969164 | 16.67° C | 73% | 999 hPa | 0 mm | - | - | - |
| 1777968565 | 17.78° C | 70% | 998.8 hPa | 0 mm | - | - | - |
| 1777967964 | 18.33° C | 67% | 998.6 hPa | 0 mm | - | - | - |
| 1777967365 | 18.89° C | 66% | 998.1 hPa | 0 mm | - | - | - |
| 1777966764 | 19.44° C | 71% | 998.1 hPa | 0 mm | - | - | - |
| 1777966165 | 20° C | 73% | 998 hPa | 0 mm | - | - | - |
| 1777965564 | 20° C | 71% | 998 hPa | 0 mm | - | - | - |
| 1777964965 | 20.56° C | 71% | 997.7 hPa | 0 mm | - | - | - |
| 1777964365 | 20.56° C | 71% | 997.8 hPa | 0 mm | - | - | - |
| 1777963764 | 20.56° C | 69% | 997.5 hPa | 0 mm | - | - | - |
| 1777963165 | 20.56° C | 70% | 997.7 hPa | 0 mm | - | - | - |
| 1777962564 | 21.11° C | 70% | 997.3 hPa | 0 mm | - | - | - |
| 1777961965 | 21.11° C | 69% | 997.2 hPa | 0 mm | - | - | - |
| 1777961365 | 21.11° C | 69% | 997 hPa | 0 mm | - | - | - |
| 1777960765 | 21.11° C | 69% | 996.8 hPa | 0 mm | - | - | - |
* Rain latest hour (hover to see other rain measurements)
** Current wind speed in m/s (hover to see current wind gust speed)